• In Austria
  • List of Countries
  • For 7 days
  • Water Temperature
  • Satellite Maps
  • Weather Map
  • News
  • Weather Widgets
  • user-avatar
    Login

    Hourly Weather Gold Coast

    Today, 25 February, Sunday

    Time Temperature Precipitation Wind Pressure Humidity
    00:00 +24°C° 0.6 mm 3 mps 754 mmHg 95%
    01:00 +24°C° 0.6 mm 2 mps 753 mmHg 95%
    02:00 +24°C° 0.2 mm 2 mps 753 mmHg 96%
    03:00 +24°C° 0.2 mm 2 mps 753 mmHg 96%
    04:00 +24°C° 0 mm 2 mps 752 mmHg 96%
    05:00 +24°C° 0 mm 2 mps 752 mmHg 95%
    06:00 +25°C° 0 mm 3 mps 753 mmHg 93%
    07:00 +25°C° 0 mm 3 mps 753 mmHg 92%
    08:00 +27°C° 0.1 mm 3 mps 752 mmHg 84%
    09:00 +29°C° 0.1 mm 3 mps 752 mmHg 77%
    10:00 +30°C° 0 mm 3 mps 752 mmHg 70%
    11:00 +32°C° 0.2 mm 4 mps 752 mmHg 69%
    12:00 +32°C° 0.2 mm 4 mps 751 mmHg 68%
    13:00 +33°C° 0.2 mm 4 mps 751 mmHg 68%
    14:00 +33°C° 0.4 mm 5 mps 750 mmHg 71%
    15:00 +32°C° 0.4 mm 5 mps 750 mmHg 74%
    16:00 +30°C° 0 mm 5 mps 750 mmHg 78%
    17:00 +29°C° 0.2 mm 5 mps 750 mmHg 82%
    18:00 +28°C° 0.2 mm 5 mps 750 mmHg 85%
    19:00 +27°C° 0.2 mm 4 mps 750 mmHg 89%
    20:00 +27°C° 0.2 mm 4 mps 751 mmHg 89%
    21:00 +26°C° 0.2 mm 4 mps 751 mmHg 90%
    22:00 +26°C° 0 mm 5 mps 751 mmHg 91%
    23:00 +26°C° 0 mm 5 mps 751 mmHg 92%

    Tomorrow, 26 February, Monday

    Time Temperature Precipitation Wind Pressure Humidity
    00:00 +26°C° 0 mm 4 mps 751 mmHg 92%
    01:00 +25°C° 0 mm 4 mps 750 mmHg 93%
    02:00 +25°C° 0.1 mm 4 mps 750 mmHg 93%
    03:00 +25°C° 0.1 mm 3 mps 750 mmHg 94%
    04:00 +24°C° 0.1 mm 3 mps 750 mmHg 95%
    05:00 +25°C° 0 mm 3 mps 750 mmHg 94%
    06:00 +25°C° 0 mm 3 mps 751 mmHg 92%
    07:00 +26°C° 0 mm 3 mps 751 mmHg 91%
    08:00 +28°C° 0 mm 3 mps 751 mmHg 81%
    09:00 +30°C° 0 mm 3 mps 751 mmHg 71%
    10:00 +33°C° 0 mm 3 mps 751 mmHg 62%
    11:00 +34°C° 0.1 mm 3 mps 750 mmHg 61%
    12:00 +34°C° 0.1 mm 4 mps 750 mmHg 60%
    13:00 +35°C° 0.1 mm 4 mps 750 mmHg 59%
    14:00 +34°C° 0.8 mm 4 mps 750 mmHg 66%
    15:00 +33°C° 0.8 mm 4 mps 750 mmHg 73%
    16:00 +31°C° 0.8 mm 3 mps 750 mmHg 80%
    17:00 +29°C° 1.5 mm 4 mps 750 mmHg 84%
    18:00 +27°C° 1.5 mm 4 mps 751 mmHg 88%
    19:00 +25°C° 1.5 mm 4 mps 751 mmHg 91%
    20:00 +24°C° 1.1 mm 6 mps 752 mmHg 91%
    21:00 +23°C° 1.1 mm 7 mps 753 mmHg 91%
    22:00 +23°C° 1.1 mm 8 mps 753 mmHg 91%
    23:00 +23°C° 0.1 mm 8 mps 753 mmHg 91%

    Day after tomorrow, 27 February, Tuesday

    Time Temperature Precipitation Wind Pressure Humidity
    00:00 +22°C° 0.1 mm 8 mps 753 mmHg 91%
    01:00 +22°C° 0.1 mm 8 mps 753 mmHg 91%
    02:00 +22°C° 0 mm 8 mps 753 mmHg 90%
    03:00 +22°C° 0 mm 8 mps 753 mmHg 89%
    04:00 +22°C° 0 mm 7 mps 754 mmHg 88%
    05:00 +22°C° 0 mm 7 mps 754 mmHg 87%
    06:00 +22°C° 0 mm 7 mps 755 mmHg 86%
    07:00 +22°C° 0 mm 7 mps 755 mmHg 85%
    08:00 +23°C° 0 mm 7 mps 755 mmHg 82%
    09:00 +24°C° 0 mm 7 mps 756 mmHg 78%
    10:00 +26°C° 0 mm 7 mps 756 mmHg 75%
    11:00 +27°C° 0 mm 7 mps 756 mmHg 71%
    12:00 +28°C° 0 mm 7 mps 755 mmHg 67%
    13:00 +28°C° 0 mm 7 mps 755 mmHg 63%
    14:00 +28°C° 0 mm 7 mps 755 mmHg 64%
    15:00 +28°C° 0 mm 7 mps 755 mmHg 65%
    16:00 +27°C° 0 mm 7 mps 755 mmHg 66%
    17:00 +26°C° 0 mm 7 mps 755 mmHg 70%
    18:00 +24°C° 0 mm 6 mps 756 mmHg 74%
    19:00 +23°C° 0 mm 6 mps 756 mmHg 78%
    20:00 +22°C° 0 mm 6 mps 757 mmHg 81%
    21:00 +21°C° 0 mm 6 mps 757 mmHg 84%
    22:00 +21°C° 0 mm 5 mps 758 mmHg 87%
    23:00 +20°C° 0 mm 5 mps 757 mmHg 88%

    28 February, Wednesday

    Time Temperature Precipitation Wind Pressure Humidity
    00:00 +20°C° 0 mm 5 mps 757 mmHg 88%
    01:00 +20°C° 0 mm 5 mps 757 mmHg 89%
    02:00 +19°C° 0 mm 5 mps 757 mmHg 90%
    03:00 +19°C° 0 mm 5 mps 757 mmHg 90%
    04:00 +19°C° 0 mm 5 mps 756 mmHg 90%
    05:00 +19°C° 0 mm 5 mps 757 mmHg 89%
    06:00 +20°C° 0 mm 5 mps 757 mmHg 87%
    07:00 +20°C° 0 mm 5 mps 757 mmHg 85%
    08:00 +22°C° 0 mm 4 mps 758 mmHg 77%
    09:00 +26°C° 0 mm 4 mps 758 mmHg 69%
    10:00 +28°C° 0 mm 4 mps 758 mmHg 61%
    11:00 +28°C° 0 mm 4 mps 757 mmHg 61%
    12:00 +29°C° 0 mm 4 mps 757 mmHg 60%
    13:00 +29°C° 0 mm 4 mps 756 mmHg 59%
    14:00 +29°C° 0.1 mm 4 mps 756 mmHg 60%
    15:00 +29°C° 0.1 mm 4 mps 755 mmHg 61%
    16:00 +29°C° 0.1 mm 4 mps 755 mmHg 62%
    17:00 +27°C° 0.1 mm 4 mps 755 mmHg 71%
    18:00 +25°C° 0.1 mm 3 mps 756 mmHg 80%
    19:00 +24°C° 0.1 mm 3 mps 756 mmHg 88%
    20:00 +22°C° 0.1 mm 3 mps 757 mmHg 90%
    21:00 +22°C° 0.1 mm 3 mps 757 mmHg 91%
    22:00 +23°C° 0.1 mm 2 mps 757 mmHg 92%
    23:00 +23°C° 0 mm 2 mps 757 mmHg 93%

    1 March, Thursday

    Time Temperature Precipitation Wind Pressure Humidity
    00:00 +21°C° 0 mm 2 mps 757 mmHg 94%
    01:00 +21°C° 0 mm 2 mps 756 mmHg 94%
    02:00 +22°C° 0 mm 1 mps 756 mmHg 94%
    03:00 +23°C° 0 mm 1 mps 756 mmHg 94%
    04:00 +23°C° 0 mm 1 mps 755 mmHg 95%
    05:00 +23°C° 0 mm 1 mps 756 mmHg 93%
    06:00 +23°C° 0 mm 1 mps 756 mmHg 91%
    07:00 +24°C° 0 mm 1 mps 756 mmHg 90%
    08:00 +26°C° 0 mm 1 mps 756 mmHg 78%
    09:00 +28°C° 0 mm 1 mps 756 mmHg 67%
    10:00 +31°C° 0 mm 2 mps 756 mmHg 56%
    11:00 +32°C° 0 mm 2 mps 755 mmHg 51%
    12:00 +35°C° 0 mm 3 mps 754 mmHg 47%
    13:00 +36°C° 0 mm 3 mps 754 mmHg 42%
    14:00 +36°C° 0 mm 4 mps 753 mmHg 45%
    15:00 +35°C° 0 mm 4 mps 753 mmHg 48%
    16:00 +34°C° 0 mm 4 mps 753 mmHg 52%
    17:00 +32°C° 0 mm 4 mps 753 mmHg 63%
    18:00 +28°C° 0 mm 4 mps 753 mmHg 74%
    19:00 +26°C° 0 mm 3 mps 754 mmHg 85%
    20:00 +25°C° 0 mm 3 mps 754 mmHg 87%
    21:00 +25°C° 0 mm 3 mps 754 mmHg 89%
    22:00 +24°C° 0 mm 2 mps 755 mmHg 91%
    23:00 +24°C° 0 mm 2 mps 755 mmHg 91%

    2 March, Friday

    Time Temperature Precipitation Wind Pressure Humidity
    00:00 +23°C° 0 mm 2 mps 754 mmHg 92%
    01:00 +23°C° 0 mm 2 mps 754 mmHg 93%
    02:00 +23°C° 0 mm 1 mps 754 mmHg 93%
    03:00 +23°C° 0 mm 1 mps 754 mmHg 93%
    04:00 +23°C° 0 mm 1 mps 754 mmHg 94%
    05:00 +23°C° 0 mm 2 mps 755 mmHg 92%
    06:00 +24°C° 0 mm 2 mps 755 mmHg 90%
    07:00 +25°C° 0 mm 3 mps 756 mmHg 88%
    08:00 +26°C° 0 mm 3 mps 756 mmHg 84%
    09:00 +27°C° 0 mm 3 mps 756 mmHg 79%
    10:00 +29°C° 0 mm 4 mps 756 mmHg 74%
    11:00 +29°C° 0 mm 4 mps 756 mmHg 70%
    12:00 +30°C° 0 mm 4 mps 755 mmHg 66%
    13:00 +32°C° 0 mm 5 mps 755 mmHg 62%
    14:00 +32°C° 0 mm 5 mps 754 mmHg 65%
    15:00 +30°C° 0 mm 5 mps 754 mmHg 68%
    16:00 +29°C° 0 mm 5 mps 754 mmHg 71%
    17:00 +28°C° 0 mm 5 mps 754 mmHg 76%
    18:00 +27°C° 0 mm 5 mps 755 mmHg 81%
    19:00 +25°C° 0 mm 4 mps 755 mmHg 86%
    20:00 +25°C° 0 mm 4 mps 756 mmHg 87%
    21:00 +25°C° 0 mm 4 mps 756 mmHg 89%
    22:00 +23°C° 0 mm 4 mps 756 mmHg 90%
    23:00 +24°C° 0 mm 3 mps 756 mmHg 91%
    Show more